Regional Weather Roundup
Issued by NWS

Home | Current Version | Previous Version | Text Only | Print | Product List | Glossary On
Versions: 1 2 3 4 5 6 7 8 9 10 11 12 13 14 15 16 17 18 19 20 21 22 23 24 25 26 27 28 29 30 31 32 33 34 35 36 37 38 39 40 41 42 43 44 45 46 47 48 49 50
000
ASUS42 KKEY 011510
RWRKEY

FLORIDA REGIONAL WEATHER ROUNDUP FOR THE FLORIDA KEYS
NATIONAL WEATHER SERVICE KEY WEST FLORIDA
1000 AM EST SUN MAR 01 2015

...SOUTH FLORIDA AND THE KEYS...

CITY           SKY/WX    TMP DP  RH WIND       PRES   REMARKS
FORT MYERS     MOSUNNY   77  69  76 E12       30.32R
SW REGIONAL AP PTSUNNY   77  68  73 E13       30.33R
NAPLES         MOSUNNY   78  69  73 E14       30.31R
MIAMI          PTSUNNY   80  69  69 E15       30.32R
WEST KENDALL   PTSUNNY   80  68  66 E16       30.32R
HOMESTEAD      NOT AVBL
MARATHON       SUNNY     80  72  76 E9G17     30.28S
BOCA CHICA NAS MOSUNNY   80  70  71 E17       30.28R
KEY WEST INTL  MOSUNNY   79  72  79 E17G25    30.29R

...INTERNATIONAL WEATHER...

CITY           SKY/WX    TMP DP  RH WIND       PRES   REMARKS
NASSAU BAHAMAS MOSUNNY   79  81 100 E13       30.32R
CANCUN MEXICO  MOSUNNY   81  73  78 E14       30.20R
COZUMEL MEXICO MOSUNNY   79  70  73 E13       30.19R

ADJACENT COASTAL WATERS...

STATION/POSITION TIME  SKY/WX   TEMP    WIND        PRES    WAVE
                                AIR SEA DIR/SP/G            HT/PER
                 (UTC)          (F)     (DEG/KT/KT) (MB)    (FT/S)
PULASKI SHOAL LI 1400            72      90/ 12/ 13 1024.9R
SAND KEY         1450            75      80/ 17/ 19 1025.2R
SOMBRERO KEY     1500            76     100/ 19/ 19 1026.0R
LONG KEY         1500            76 76  100/ 14/ 15 1026.5R
MOLASSES REEF    1500            76 76  110/ 14/ 16 1025.8R
FOWEY ROCKS      NOT AVBL
Buoy 42080       NOT AVBL

$$


USA.gov is the U.S. government's official web portal to all federal, state and local government web resources and services.